Location: Coors Field
(39.7564°N, 104.9943°W)
Time: 13:38:02
(UTC-07:00)

ISS - Visible Passes

Search period start: 18 December 2017 00:00
Search period end: 28 December 2017 00:00
Orbit: 402 x 406 km, 51.6° (Epoch: 19 December)

Date Brightness Start Highest point End Pass type
(mag) Time Alt. Az. Time Alt. Az. Time Alt. Az.
19 Dec -0.4 17:25:18 10° W 17:27:08 14° SW 17:28:57 10° SSW visible
24 Dec -0.6 06:35:15 10° S 06:37:27 17° SE 06:39:40 10° E visible
26 Dec -2.4 06:25:55 10° SSW 06:29:00 42° SE 06:32:08 10° ENE visible
27 Dec -1.2 05:34:14 10° S 05:36:47 21° SE 05:39:21 10° E visible
